User: anonymous   Login
Location: Unspecified
(0.0000°N, 0.0000°E)
Time: 01:34:17
(UTC+00:00)
Language:

HETE-2 - Orbit

View from above orbital plane
View from above orbital plane
View from above satellite
View from above satellite

Ground track
Ground track

The orbit data is extracted from the following two-line orbital elements,

1 26561U 00061A   18174.65800128  .00001239  00000-0  21812-4 0  9991
2 26561   1.9486 137.7401 0018112 152.5630 207.5369 15.07669873971009
Epoch (UTC): 23 June 2018 15:47:31
Eccentricity: 0.0018112
inclination: 1.9486°
perigee height: 531 km
apogee height: 556 km
right ascension of ascending node: 137.7401°
argument of perigee: 152.5630°
revolutions per day: 15.07669873
mean anomaly at epoch: 207.5369°
orbit number at epoch: 97100

The dashed part of the orbit path shows where the satellite is in the earth's shadow,  

DLR